User: anonymous   Login
Location: Fort Wayne
(41.1310°N, 85.1290°W)
Time: 08:31:40
(UTC-04:00)
Language:

Cosmos 2227 Rocket - Orbit

View from above orbital plane
View from above orbital plane
View from above satellite
View from above satellite

Ground track
Ground track

The orbit data is extracted from the following two-line orbital elements,

1 22285U 92093B   15182.19795799 -.00000218  00000-0 -88125-4 0  9996
2 22285 071.0227 276.3145 0003152 173.8759 186.2403 14.14973884161112
Epoch (UTC): 01 July 2015 04:45:03
Eccentricity: 0.0003152
inclination: 71.0227°
perigee height: 840 km
apogee height: 844 km
right ascension of ascending node: 276.3145°
argument of perigee: 173.8759°
revolutions per day: 14.14973884
mean anomaly at epoch: 186.2403°
orbit number at epoch: 16111

The dashed part of the orbit path shows where the satellite is in the earth's shadow,  

DLR